Kayseri, Turkey

6:23 AM +03 on April 25, 2018 (GMT +0300)
Erkilet Air Base

Weather History for LTAU - October, 2013

Change the Weather History Date:

Tuesday, October 8, 2013

  Actual Average Record
Temperature  
Mean Temperature 42 °F -  
Max Temperature 60 °F 63 °F 82 °F (1999)
Min Temperature 24 °F 36 °F 24 °F (2013)
Degree Days  
Heating Degree Days 23    
Moisture  
Dew Point 26 °F    
Average Humidity 61    
Maximum Humidity 93    
Minimum Humidity 12    
Precipitation  
Precipitation 0.00 in - - ()
Sea Level Pressure  
Sea Level Pressure 30.40 in    
Wind  
Wind Speed 2 mph ()    
Max Wind Speed 7 mph    
Max Gust Speed -    
Visibility 10.8 miles    
Events      
Averages and records for this station are not official NWS values.
T = Trace of Precipitation, MM = Missing Value Source: Averaged Metar Reports

Daily Weather History Graph

Daily Weather History Graph

Search for Another Location

Airport or City:

Astronomy

Oct. 08, 2013 Rise Set
Actual Time 6:40 AM EEST 6:10 PM EEST
Civil Twilight 6:14 AM EEST 6:36 PM EEST
Nautical Twilight 5:43 AM EEST 7:07 PM EEST
Astronomical Twilight 5:12 AM EEST 7:38 PM EEST
Moon 10:10 AM EEST (10/8) 8:30 PM EEST (10/8)
Length of Visible Light 12h 22m
Length of Day
11h 29m
Waxing Crescent, 13% of the Moon is Illuminated
Oct 8
Waxing Crescent
Oct 12
First Quarter
Oct 19
Full
Oct 27
Last Quarter
Nov 3
New

Hourly Weather History & Observations

Time (EEST) Temp. Windchill Dew Point Humidity Pressure Visibility Wind Dir Wind Speed Gust Speed Precip Events Conditions
12:20 AM 30.2 °F 26.7 °F 26.6 °F 86% 30.39 in - NE 3.5 mph - N/A   Clear
12:50 AM 30.2 °F 26.7 °F 26.6 °F 86% 30.39 in - NE 3.5 mph - N/A   Clear
1:20 AM 32.0 °F - 28.4 °F 87% 30.39 in - NE 2.3 mph - N/A   Clear
1:50 AM 28.4 °F - 24.8 °F 86% 30.39 in - NNE 2.3 mph - N/A   Clear
2:20 AM 28.4 °F - 26.6 °F 93% 30.39 in - NNE 2.3 mph - N/A   Clear
2:50 AM 28.4 °F - 26.6 °F 93% 30.39 in - NE 2.3 mph - N/A   Clear
3:00 AM 29 °F - 26 °F 86%  in 12 mi NE 2.3 mph - -  
3:20 AM 28.4 °F 24.6 °F 26.6 °F 93% 30.39 in - NE 3.5 mph - N/A   Clear
3:50 AM 28.4 °F - 24.8 °F 86% 30.42 in - Calm Calm - N/A   Clear
4:20 AM 26.6 °F - 24.8 °F 93% 30.42 in - Calm Calm - N/A   Clear
4:50 AM 26.6 °F - 24.8 °F 93% 30.42 in - NNE 2.3 mph - N/A   Clear
5:20 AM 24.8 °F 20.5 °F 23.0 °F 93% 30.42 in - NNE 3.5 mph - N/A   Clear
5:50 AM 24.8 °F - 23.0 °F 93% 30.42 in - NNE 1.2 mph - N/A   Clear
6:20 AM 26.6 °F - 24.8 °F 93% 30.42 in - NE 1.2 mph - N/A   Clear
6:50 AM 26.6 °F - 24.8 °F 93% 30.42 in - ENE 2.3 mph - N/A   Clear
7:20 AM 28.4 °F 24.6 °F 24.8 °F 86% 30.42 in - NNE 3.5 mph - N/A   Clear
7:50 AM 32.0 °F 28.7 °F 28.4 °F 87% 30.42 in - NE 3.5 mph - N/A   Clear
8:20 AM 35.6 °F - 30.2 °F 81% 30.42 in - Variable 1.2 mph - N/A   Clear
8:50 AM 37.4 °F - 30.2 °F 75% 30.42 in - Variable 2.3 mph - N/A   Clear
9:00 AM 38 °F - 31 °F 69%  in 12 mi NE 2.3 mph - -  
9:20 AM 41.0 °F - 30.2 °F 65% 30.45 in - Variable 2.3 mph - N/A   Clear
9:50 AM 44.6 °F - 30.2 °F 57% 30.45 in - Variable 1.2 mph - N/A   Clear
10:20 AM 46.4 °F - 28.4 °F 50% 30.45 in - Variable 1.2 mph - N/A   Clear
10:50 AM 48.2 °F - 26.6 °F 43% 30.45 in - Variable 1.2 mph - N/A   Clear
11:20 AM 50.0 °F - 23.0 °F 35% 30.42 in - NE 2.3 mph - N/A   Clear
11:50 AM 51.8 °F - 23.0 °F 33% 30.42 in - Variable 3.5 mph - N/A   Clear
12:20 PM 51.8 °F - 17.6 °F 26% 30.42 in - Variable 3.5 mph - N/A   Clear
12:50 PM 53.6 °F - 17.6 °F 24% 30.42 in - ENE 4.6 mph - N/A   Clear
1:20 PM 53.6 °F - 17.6 °F 24% 30.39 in - Variable 2.3 mph - N/A   Clear
1:50 PM 57.2 °F - 19.4 °F 23% 30.39 in - Variable 2.3 mph - N/A   Clear
2:20 PM 57.2 °F - 17.6 °F 21% 30.36 in - Variable 1.2 mph - N/A   Clear
2:50 PM 59.0 °F - 19.4 °F 22% 30.36 in - Variable 1.2 mph - N/A   Clear
3:00 PM 58 °F - 19 °F 12%  in 12 mi NNE 1.2 mph - -  
3:20 PM 59.0 °F - 19.4 °F 22% 30.36 in - Variable 2.3 mph - N/A   Clear
3:50 PM 60.8 °F - 19.4 °F 20% 30.36 in - Variable 2.3 mph - N/A   Clear
4:20 PM 60.8 °F - 19.4 °F 20% 30.36 in 6.2 mi West 4.6 mph - N/A   Partly Cloudy
4:50 PM 60.8 °F - 23.0 °F 23% 30.36 in - WNW 2.3 mph - N/A   Clear
5:20 PM 59.0 °F - 23.0 °F 25% 30.36 in - North 3.5 mph - N/A   Clear
5:50 PM 57.2 °F - 26.6 °F 31% 30.36 in - NW 4.6 mph - N/A   Clear
6:20 PM 53.6 °F - 28.4 °F 38% 30.36 in - NW 6.9 mph - N/A   Clear
6:50 PM 51.8 °F - 30.2 °F 44% 30.39 in - NW 4.6 mph - N/A   Clear
7:20 PM 48.2 °F - 30.2 °F 50% 30.39 in - Calm Calm - N/A   Clear
7:50 PM 44.6 °F - 32.0 °F 61% 30.39 in - SSE 2.3 mph - N/A   Clear
8:20 PM 41.0 °F - 32.0 °F 70% 30.39 in - South 2.3 mph - N/A   Clear
8:50 PM 42.8 °F 41.1 °F 30.2 °F 61% 30.39 in - South 3.5 mph - N/A   Clear
9:00 PM 43 °F - 30 °F 49%  in 12 mi South 3.5 mph - -  
9:20 PM 39.2 °F - 30.2 °F 70% 30.39 in - Calm Calm - N/A   Clear
9:50 PM 39.2 °F - 30.2 °F 70% 30.39 in - Calm Calm - N/A   Clear
10:20 PM 37.4 °F 34.9 °F 32.0 °F 81% 30.39 in - ENE 3.5 mph - N/A   Clear
10:50 PM 37.4 °F - 32.0 °F 81% 30.42 in - NNE 1.2 mph - N/A   Clear
11:20 PM 35.6 °F 29.9 °F 30.2 °F 81% 30.39 in - NE 6.9 mph - N/A   Clear
11:50 PM 35.6 °F 32.8 °F 30.2 °F 81% 30.39 in - NNE 3.5 mph - N/A   Clear